     2              OBSERVATION DATA    GPS                 RINEX VERSION / TYPE
teqc 1997Jul24 19970902 21:02:33UTC                         PGM / RUN BY / DATE
                                                            COMMENT
BIT 2 OF LLI FLAGS DATA COLLECTED UNDER A-S CONDITION       COMMENT
BIT 2 OF LLI FLAGS DATA COLLECTED UNDER A-S CONDITION       COMMENT
Original Marker Name: 55445.BLAC                            COMMENT
Campaign Name: Salt. Tr. Crust. Monit. May-Jun 1986         COMMENT
4-Character Station Name: BLAC                              COMMENT
6-Character Antenna Code: TI4100                            COMMENT
Vertical Measurement Point: PAE                             COMMENT
Vertical Offset to Rinex Ref. Point: 0.0000                 COMMENT
Radial Measurement Point: RRP                               COMMENT
Radial Offset to Rinex Ref. Point: 0.0000                   COMMENT
Antenna Height from Field Measurement: 1.4190 m             COMMENT
Original XYZ: -1925218.2169 -3792131.7628 2790824.9605      COMMENT
New XYZ position is based on association with SCEC monument COMMENT
E1D0M3T8+0011. Position of that monument is believed to be  COMMENT
valid to within 1 m horizontally; vertical accuracy         COMMENT
should be no worse than 3-times this value.                 COMMENT
                                                            COMMENT
Revised Rinex header created by UCSD GPS archive for        COMMENT
GSAC on 12-Apr-1999 (1999:102) 13:02:13 GMT                 COMMENT
For assistance contact dagnew@ucsd.edu or hjohnson@ucsd.edu COMMENT
                                                            COMMENT
BLACK BUTTE NCMN 1982                                       MARKER NAME
05 NATIONAL GEODETIC SURVEY                                 OBSERVER / AGENCY
UT-28 TI 4100 1.0                                           REC # / TYPE / VERS
4053 TI 4100                                                ANT # / TYPE
 -2306307.0000 -4787914.0000  3515736.0000                  APPROX POSITION XYZ
        1.4190        0.0000        0.0000                  ANTENNA: DELTA H/E/N
     1     1     0                                          WAVELENGTH FACT L1/2
     4    P1    P2    L1    L2                              # / TYPES OF OBSERV
     6                                                      INTERVAL
  1986     6    13     4    33   53.000000                  TIME OF FIRST OBS
  1986     6    19    13    50   12.000000                  TIME OF LAST OBS
     0                                                      # OF SATELLITES
                                                            END OF HEADER
 86  6 13  4 33 53.0800000  0  3G12G13G 7
  21729945.018    21729948.596    31161906.156 9 -30061596.718 9
  22140652.284    22140654.243     4071016.882 9  -3360608.890 9
  24299499.360    24299503.100    15517029.985 9 -39100538.561 8
 86  6 13  4 33 59.0800000  0  3G12G13G 7
  21732724.158    21732728.662    31176510.807 9 -30050216.466 8
  22142462.467    22142464.748     4080525.735 9  -3353199.392 9
  24298885.095    24298888.821    15513801.235 9 -39103054.466 8
 86  6 13  4 34  5.0800000  0  3G12G13G 7
  21735506.736    21735510.561    31191134.466 9 -30038821.421 9
  22144270.990    22144275.012     4090036.340 9  -3345788.539 8
  24298275.563    24298279.262    15510596.565 9 -39105551.608 9
 86  6 13  4 34 11.0800000  0  3G12G13G 7
  21738293.300    21738297.266    31205777.100 9 -30027411.566 8
  22146081.370    22146084.888     4099548.622 9  -3338376.379 8
  24297669.729    24297673.774    15507413.684 9 -39108031.768 9
 86  6 13  4 34 17.0800000  0  3G12G13G 7
  21741083.073    21741087.558    31220438.679 9 -30015986.972 9
  22147892.603    22147895.360     4109062.659 9  -3330962.849 9
  24297067.530    24297071.125    15504251.198 9 -39110496.038 9
 86  6 13  4 34 23.0800000  0  3G12G13G 7
  21743877.380    21743880.944    31235119.150 9 -30004547.644 8
  22149703.110    22149706.482     4118578.448 9  -3323547.953 8
  24296470.334    24296472.895    15501110.029 9 -39112943.694 9
 86  6 13  4 34 29.0800000  0  3G12G13G 7
  21746673.322    21746678.201    31249818.505 9 -29993093.608 9
  22151514.547    22151516.730     4128095.909 9  -3316131.752 9
                  24295880.201                   -39115370.713 8
 86  6 13  4 34 35.0800000  0  3G12G13G 7
  21749475.553    21749479.342    31264536.667 9 -29981624.916 8
  22153325.334    22153328.551     4137615.076 9  -3308714.218 9
  24295298.189    24295292.015    15461568.597 7 -39117771.655 9
 86  6 13  4 34 41.0800000  0  3G12G13G 7
  21752279.206    21752282.414    31279273.666 9 -29970141.539 9
  22155137.743    22155140.503     4147135.901 9  -3301295.396 9
  24294711.672    24294715.810    15458524.870 9 -39120143.428 8
 86  6 13  4 34 47.0800000  0  3G12G13G 7
  21755087.201    21755091.940    31294029.490 9 -29958643.498 9
  22156949.721    22156951.890     4156658.436 9  -3293875.248 8
  24294139.167    24294142.822    15455516.818 9 -39122486.976 9
 86  6 13  4 34 53.0800000  0  3G12G13G 7
  21757897.527    21757903.190    31308804.102 9 -29947130.825 9
  22158761.995    22158764.815     4166182.707 9  -3286453.742 9
  24293572.329    24293576.395    15452540.855 9 -39124805.901 9
 86  6 13  4 34 59.0800000  0  3G12G13G 7
  21760714.074    21760717.859    31323597.422 9 -29935603.569 9
  22160574.283    22160577.795     4175708.610 9  -3279030.959 8
  24293011.294    24293016.291    15449592.116 9 -39127103.628 8
 86  6 13  4 35  5.0800000  0  3G12G13G 7
  21763531.959    21763536.218    31338409.453 9 -29924061.731 8
  22162386.821    22162390.963     4185236.181 9  -3271606.881 8
  24292454.271    24292458.493    15446667.426 9 -39129382.602 9
 86  6 13  4 35 11.0800000  0  3G12G13G 7
  21766354.304    21766358.859    31353240.200 9 -29912505.307 9
  22164200.292    22164203.395     4194765.422 9  -3264181.501 9
  24291901.943    24291905.131    15443764.509 9 -39131644.611 8
 86  6 13  4 35 17.0800000  0  3G12G13G 7
  21769180.349    21769184.504    31368089.579 9 -29900934.368 9
  22166013.944    22166017.856     4204296.361 9  -3256754.799 9
  24291353.603    24291357.203    15440881.999 9 -39133890.722 9
 86  6 13  4 35 23.0800000  0  3G12G13G 7
  21772009.587    21772013.431    31382958.126 9 -29889349.373 9
  22167828.566    22167831.361     4213828.902 9  -3249326.838 9
  24290807.914    24290813.454    15438020.937 9 -39136120.128 8
 86  6 13  4 35 29.0800000  0  3G12G13G 7
  21774842.783    21774847.446    31397844.826 9 -29877749.368 7
  22169642.634    22169645.137     4223363.106 9  -3241897.587 8
                  24290274.265                   -39138328.679 9
 86  6 13  4 35 35.0800000  0  3G12G13G 7
  21777678.828    21777682.696    31412750.083 9 -29866134.888 8
  22171457.669    22171460.522     4232899.000 9  -3234467.017 9
  24289733.675    24289741.059    15398755.202 9 -39140510.973 8
 86  6 13  4 35 41.0800000  0  3G12G13G 7
  21780519.472    21780522.335    31427673.949 9 -29854505.895 9
  22173272.353    22173274.416     4242436.489 9  -3227035.215 8
  24289210.502    24289215.657    15395992.305 9 -39142663.735 9
 86  6 13  4 35 47.0800000  0  3G12G13G 7
  21783362.120    21783366.395    31442616.457 9 -29842862.392 8
  22175087.002    22175090.659     4251975.618 9  -3219602.128 8
  24288691.817    24288695.309    15393265.462 9 -39144788.529 9
 86  6 13  4 35 53.0800000  0  3G12G13G 7
  21786209.114    21786213.534    31457577.590 9 -29831204.381 8
  22176903.132    22176907.037     4261516.491 9  -3212167.689 9
  24288179.657    24288183.287    15390570.329 9 -39146888.641 9
 86  6 13  4 35 59.0800000  0  3G12G13G 7
  21789059.701    21789064.193    31472557.303 9 -29819531.875 8
  22178719.312    22178722.223     4271059.139 9  -3204731.857 9
  24287672.466    24287675.705    15387902.394 9 -39148967.545 9
 86  6 13  4 36  5.0800000  0  3G12G13G 7
  21791913.616    21791918.778    31487555.514 9 -29807844.961 8
  22180535.243    22180538.388     4280603.436 9  -3197294.748 9
  24287169.223    24287171.595    15385258.418 9 -39151027.782 9
 86  6 13  4 36 11.0800000  0  3G12G13G 7
  21794771.342    21794775.880    31502572.221 8 -29796143.637 9
  22182350.705    22182354.562     4290149.429 9  -3189856.312 9
  24286670.130    24286673.095    15382636.202 9 -39153071.071 9
 86  6 13  4 36 17.0800000  0  3G12G13G 7
  21797632.718    21797636.211    31517607.480 8 -29784427.866 9
  22184168.289    22184172.302     4299697.109 9  -3182416.563 8
  24286175.095    24286178.563    15380034.571 9 -39155098.306 9
 86  6 13  4 36 23.0800000  0  3G12G13G 7
  21800496.535    21800500.737    31532661.214 9 -29772697.690 9
  22185986.119    22185988.417     4309246.547 9  -3174975.439 9
  24285684.605    24285688.371    15377454.712 9 -39157108.590 8
 86  6 13  4 36 29.0800000  0  3G12G13G 7
  21803365.079    21803368.369    31547733.470 8 -29760953.076 9
  22187803.315    22187806.000     4318797.776 9  -3167532.926 8
                  24285201.628                   -39159097.766 8
 86  6 13  4 36 35.0800000  0  3G12G13G 7
  21806236.202    21806240.833    31562824.115 8 -29749194.134 8
  22189621.034    22189623.881     4328350.765 9  -3160089.034 9
  24284721.997    24284721.997    15338467.284 9 -39161060.327 9
 86  6 13  4 36 41.0800000  0  3G12G13G 7
  21809111.797    21809116.005    31577933.168 9 -29737420.861 8
  22191439.776    22191443.087     4337905.399 9  -3152643.874 8
  24284247.139    24284250.621    15335986.697 9 -39162993.262 8
 86  6 13  4 36 47.0800000  0  3G12G13G 7
  21811990.877    21811994.344    31593060.491 8 -29725633.331 8
  22193258.151    22193260.107     4347461.698 9  -3145197.398 9
  24283782.039    24283785.006    15333541.756 9 -39164898.407 8
 86  6 13  4 36 53.0800000  0  3G12G13G 7
  21814872.032    21814877.062    31608206.149 9 -29713831.522 8
  22195076.603    22195080.534     4357019.643 8  -3137749.658 9
  24283322.668    24283324.959    15331128.246 9 -39166779.061 9
 86  6 13  4 36 59.0800000  0  3G12G13G 7
  21817758.344    21817761.844    31623370.086 9 -29702015.483 8
  22196896.021    22196899.447     4366579.296 9  -3130300.572 8
  24282868.288    24282872.527    15328741.603 9 -39168638.775 8
 86  6 13  4 37  5.0800000  0  3G12G13G 7
  21820647.124    21820650.716    31638552.229 9 -29690185.251 8
  22198716.227    22198718.075     4376140.537 9  -3122850.245 8
  24282419.214    24282422.119    15326378.926 9 -39170479.827 9
 86  6 13  4 37 11.0800000  0  3G12G13G 7
  21823539.503    21823544.487    31653752.586 9 -29678340.814 8
  22200535.491    22200537.827     4385703.386 9  -3115398.680 9
  24281973.432    24281976.603    15324037.884 9 -39172304.006 8
 86  6 13  4 37 17.0800000  0  3G12G13G 7
  21826435.789    21826439.958    31668971.140 8 -29666482.206 8
  22202356.116    22202358.540     4395267.801 9  -3107945.877 8
  24281531.502    24281534.125    15321717.238 9 -39174112.304 8
 86  6 13  4 37 23.0800000  0  3G12G13G 7
  21829335.531    21829338.935    31684207.855 9 -29654609.442 8
  22204176.322    22204178.804     4404833.820 9  -3100491.841 8
  24281094.120    24281097.020    15319418.459 9 -39175903.556 9
 86  6 13  4 37 29.0800000  0  3G12G13G 7
  21832238.159    21832242.655    31699462.712 8 -29642722.545 8
  22205996.280    22205999.006     4414401.424 9  -3093036.561 9
                  24280664.999                   -39177673.534 9
 86  6 13  4 37 35.0800000  0  3G12G13G 7
  21835145.075    21835148.872    31714735.665 8 -29630821.548 9
  22207817.726    22207820.065     4423970.654 9  -3085580.019 9
  24280238.435    24280239.251    15280711.521 9 -39179416.662 8
 86  6 13  4 37 41.0800000  0  3G12G13G 7
  21838054.878    21838058.562    31730026.689 8 -29618906.482 9
  22209638.313    22209640.925     4433541.482 9  -3078122.228 9
  24279818.017    24279821.970    15278512.390 9 -39181130.233 9
 86  6 13  4 37 47.0800000  0  3G12G13G 7
  21840967.784    21840972.351    31745335.766 9 -29606977.331 8
  22211460.674    22211463.464     4443113.936 9  -3070663.180 9
  24279406.050    24279409.160    15276349.396 9 -39182816.068 8
 86  6 13  4 37 53.0800000  0  3G12G13G 7
  21843884.177    21843887.964    31760662.857 9 -29595034.153 8
  22213281.433    22213285.325     4452687.981 9  -3063202.884 9
  24279000.109    24279003.602    15274217.070 9 -39184477.619 9
 86  6 13  4 37 59.0800000  0  3G12G13G 7
  21846804.708    21846808.928    31776007.911 9 -29583076.974 9
  22215104.010    22215105.741     4462263.594 9  -3055741.358 9
  24278598.474    24278602.639    15272111.492 9 -39186118.327 9
 86  6 13  4 38  5.0800000  0  3G12G13G 7
  21849728.472    21849732.631    31791370.903 8 -29571105.825 8
  22216927.065    22216929.928     4471840.714 9  -3048278.664 8
  24278203.169    24278207.022    15270029.694 9 -39187740.504 9
 86  6 13  4 38 11.0800000  0  3G12G13G 7
  21852655.086    21852659.186    31806751.881 9 -29559120.644 8
  22218749.369    22218751.429     4481419.439 9  -3040814.726 8
  24277810.856    24277814.403    15267969.493 9 -39189345.854 9
 86  6 13  4 38 17.0800000  0  3G12G13G 7
  21855584.873    21855589.061    31822150.885 9 -29547121.423 8
  22220572.253    22220575.429     4490999.775 9  -3033349.522 8
  24277423.209    24277426.217    15265929.785 9 -39190935.243 9
 86  6 13  4 38 23.0800000  0  3G12G13G 7
  21858518.560    21858523.532    31837567.906 9 -29535108.181 9
  22222395.351    22222398.084     4500581.746 9  -3025883.053 9
  24277039.259    24277042.215    15263912.190 9 -39192507.395 9
 86  6 13  4 38 29.0800000  0  3G12G13G 7
  21861454.941    21861460.668    31853002.819 9 -29523080.968 8
  22224219.280    22224221.997     4510165.374 9  -3018415.291 9
                  24276664.398                   -39194058.009 8
 86  6 13  4 38 35.0800000  0  3G12G13G 7
  21864396.196    21864400.101    31868455.560 9 -29511039.885 8
  22226043.079    22226045.591     4519750.644 9  -3010946.242 8
  24276286.952    24276290.240    15225487.005 9 -39195581.592 9
 86  6 13  4 38 41.0800000  0  3G12G13G 7
  21867340.124    21867345.258    31883926.174 9 -29498984.855 9
  22227867.107    22227871.249     4529337.497 9  -3003475.968 9
  24275923.807    24275927.508    15223569.573 9 -39197075.664 9
 86  6 13  4 38 47.0800000  0  3G12G13G 7
  21870288.635    21870292.007    31899414.681 9 -29486915.897 8
  22229693.031    22229694.620     4538925.957 9  -2996004.438 8
  24275565.064    24275568.347    15221687.716 9 -39198542.037 9
 86  6 13  4 38 53.0800000  0  3G12G13G 7
  21873239.501    21873242.634    31914921.007 9 -29474833.051 8
  22231517.554    22231520.630     4548516.043 9  -2988531.642 8
  24275213.224    24275216.350    15219836.930 9 -39199984.218 8
 86  6 13  4 38 59.0800000  0  3G12G13G 7
  21876192.579    21876197.259    31930445.184 8 -29462736.297 9
  22233342.161    22233346.276     4558107.702 9  -2981057.621 9
  24274866.519    24274869.470    15218012.844 9 -39201405.573 8
 86  6 13  4 39  5.0800000  0  3G12G13G 7
  21879150.175    21879155.008    31945987.205 9 -29450625.639 8
  22235168.172    22235171.557     4567701.075 9  -2973582.265 9
  24274524.106    24274526.227    15216212.666 9 -39202808.314 8
 86  6 13  4 39 11.0800000  0  3G12G13G 7
  21882110.796    21882114.785    31961547.035 9 -29438501.102 8
  22236994.184    22236997.030     4577296.101 9  -2966105.611 8
  24274185.619    24274187.901    15214434.127 8 -39204194.190 8
 86  6 13  4 39 17.0800000  0  3G12G13G 7
  21885076.216    21885080.015    31977124.651 9 -29426362.702 9
  22238820.829    22238822.525     4586892.839 9  -2958627.629 9
  24273850.968    24273853.291    15212676.163 9 -39205564.030 8
 86  6 13  4 39 23.0800000  0  3G12G13G 7
  21888042.896    21888047.022    31992719.971 9 -29414210.520 9
  22240647.140    22240648.250     4596491.187 9  -2951148.387 9
  24273520.632    24273523.487    15210940.393 9 -39206916.572 9
 86  6 13  4 39 29.0800000  0  3G12G13G 7
  21891014.294    21891018.704    32008332.959 8 -29402044.551 9
  22242473.709    22242476.943     4606091.255 9  -2943667.810 8
                  24273198.607                   -39208247.195 8
 86  6 13  4 39 35.0800000  0  3G12G13G 7
  21893988.676    21893992.812    32023963.586 9 -29389864.844 8
  22244300.949    22244303.124     4615693.018 9  -2936185.915 8
  24272878.362    24272877.935    15172795.626 9 -39209550.522 9
 86  6 13  4 39 41.0800000  0  3G12G13G 7
  21896966.619    21896970.355    32039611.853 9 -29377671.394 8
  22246128.410    22246131.610     4625296.404 9  -2928702.743 8
  24272567.045    24272568.058    15171160.924 9 -39210824.328 9
 86  6 13  4 39 47.0800000  0  3G12G13G 7
  21899947.927    21899951.731    32055277.697 9 -29365464.249 9
  22247956.432    22247958.764     4634901.417 9  -2921218.320 8
  24272262.186    24272264.286    15169561.162 9 -39212070.508 8
 86  6 13  4 39 53.0800000  0  3G12G13G 7
  21902932.694    21902936.240    32070961.071 9 -29353243.452 8
  22249783.416    22249787.021     4644507.929 9  -2913732.724 9
  24271964.199    24271965.466    15167992.830 9 -39213292.585 9
 86  6 13  4 39 59.0800000  0  3G12G13G 7
  21905919.951    21905923.659    32086662.022 9 -29341008.941 8
  22251613.289    22251615.351     4654115.914 9  -2906245.979 9
  24271670.438    24271672.006    15166451.043 9 -39214493.977 9
 86  6 13  4 40  5.0800000  0  3G12G13G 7
  21908910.465    21908914.183    32102380.455 9 -29328760.825 8
  22253441.304    22253443.453     4663725.408 9  -2898758.059 8
  24271381.484    24271383.472    15164932.837 9 -39215676.995 8
 86  6 13  4 40 11.0800000  0  3G12G13G 7
  21911905.494    21911909.174    32118116.281 8 -29316499.131 8
  22255270.540    22255273.259     4673336.460 9  -2891268.920 8
  24271096.176    24271098.720    15163436.064 9 -39216843.302 9
 86  6 13  4 40 17.0800000  0  3G12G13G 7
  21914904.104    21914906.997    32133869.553 8 -29304223.868 8
  22257099.986    22257101.531     4682949.115 9  -2883778.544 8
  24270815.189    24270817.570    15161959.720 9 -39217993.708 8
 86  6 13  4 40 23.0800000  0  3G12G13G 7
  21917905.673    21917907.788    32149640.251 9 -29291935.027 8
  22258929.286    22258931.549     4692563.323 9  -2876286.950 8
  24270537.860    24270540.235    15160505.631 9 -39219126.756 8
 86  6 13  4 40 29.0800000  0  3G12G13G 7
  21920909.365    21920912.700    32165428.342 9 -29279632.614 8
  22260758.839    22260760.870     4702179.073 9  -2868794.154 9
                  24270270.212                   -39220237.591 8
 86  6 13  4 40 35.0800000  0  3G12G13G 7
  21923917.002    21923920.186    32181233.851 8 -29267316.643 8
  22262588.354    22262591.068     4711796.419 9  -2861300.116 9
  24270001.698    24270003.514    15122643.219 9 -39221320.950 8
 86  6 13  4 40 41.0800000  0  3G12G13G 7
  21926927.492    21926931.085    32197056.799 9 -29254987.081 7
  22264418.587    22264422.026     4721415.425 9  -2853804.781 7
  24269745.719    24269748.589    15121290.783 9 -39222374.800 8
 86  6 13  4 40 47.0800000  0  3G12G13G 7
  21929941.855    21929946.324    32212897.145 9 -29242643.968 8
  22266250.334    22266253.376     4731036.063 9  -2846308.189 9
  24269494.954    24269496.309    15119974.074 9 -39223401.213 9
 86  6 13  4 40 53.0800000  0  3G12G13G 7
  21932960.088    21932962.988    32228754.792 9 -29230287.361 8
  22268081.553    22268084.441     4740658.279 9  -2838810.345 8
  24269249.763    24269252.843    15118687.606 9 -39224403.645 8
 86  6 13  4 40 59.0800000  0  3G12G13G 7
  21935979.945    21935984.319    32244629.762 9 -29217917.261 8
  22269912.901    22269915.054     4750282.020 9  -2831311.323 9
  24269009.569    24269012.607    15117427.560 9 -39225385.511 8
 86  6 13  4 41  5.0800000  0  3G12G13G 7
  21939004.778    21939008.429    32260521.993 9 -29205533.708 9
  22271745.305    22271747.583     4759907.385 9  -2823811.048 8
  24268774.257    24268777.016    15116191.142 9 -39226348.943 9
 86  6 13  4 41 11.0800000  0  3G12G13G 7
  21942032.452    21942035.846    32276431.449 9 -29193136.737 8
  22273576.526    22273579.024     4769534.366 9  -2816309.487 8
  24268542.734    24268546.964    15114976.237 9 -39227295.626 8
 86  6 13  4 41 17.0800000  0  3G12G13G 7
  21945062.729    21945066.716    32292358.096 9 -29180726.362 8
  22275408.137    22275410.606     4779162.913 9  -2808806.729 9
  24268315.339    24268319.568    15113781.825 9 -39228226.331 9
 86  6 13  4 41 23.0800000  0  3G12G13G 7
  21948097.599    21948100.952    32308301.922 9 -29168302.607 9
  22277241.576    22277242.894     4788792.995 9  -2801302.774 9
  24268092.631    24268096.351    15112609.918 9 -39229139.522 9
 86  6 13  4 41 29.0800000  0  3G12G13G 7
  21951134.050    21951139.321    32324262.938 9 -29155865.466 8
  22279074.245    22279076.392     4798424.555 9  -2793797.654 9
                  24267879.364                   -39230030.336 8
 86  6 13  4 41 35.0800000  0  3G12G13G 7
  21954174.803    21954177.694    32340241.033 8 -29143414.999 8
  22280906.838    22280909.228     4808057.679 9  -2786291.323 8
  24267665.022    24267668.799    15075026.887 9 -39230893.555 9
 86  6 13  4 41 41.0800000  0  3G12G13G 7
  21957218.863    21957222.062    32356236.314 9 -29130951.163 8
  22282739.753    22282742.880     4817692.406 9  -2778783.749 8
  24267460.796    24267464.318    15073956.996 9 -39231727.231 8
 86  6 13  4 41 47.0800000  0  3G12G13G 7
  21960264.717    21960270.033    32372248.735 8 -29118473.940 8
  22284573.391    22284576.983     4827328.778 9  -2771274.891 8
  24267264.032    24267267.547    15072922.257 9 -39232533.521 8
 86  6 13  4 41 53.0800000  0  3G12G13G 7
  21963315.788    21963319.326    32388278.212 9 -29105983.456 8
  22286407.657    22286410.712     4836966.723 9  -2763764.799 9
  24267073.869    24267075.524    15071918.156 9 -39233315.947 9
 86  6 13  4 41 59.0800000  0  3G12G13G 7
  21966369.051    21966373.556    32404324.681 9 -29093479.711 8
  22288242.432    22288245.766     4846606.364 9  -2756253.400 8
  24266887.518    24266890.045    15070940.298 9 -39234077.903 8
 86  6 13  4 42  5.0800000  0  3G12G13G 7
  21969425.306    21969430.150    32420388.171 9 -29080962.715 8
  22290076.871    22290079.466     4856247.536 9  -2748740.794 9
  24266705.226    24266707.631    15069985.881 9 -39234821.607 8
 86  6 13  4 42 11.0800000  0  3G12G13G 7
  21972486.668    21972489.429    32436468.716 9 -29068432.430 7
  22291911.781    22291914.727     4865890.249 9  -2741226.993 8
  24266528.243    24266530.716    15069052.801 9 -39235548.683 8
 86  6 13  4 42 17.0800000  0  3G12G13G 7
  21975548.799    21975553.305    32452566.215 9 -29055888.928 8
  22293745.970    22293750.248     4875534.559 9  -2733711.951 9
  24266354.181    24266356.398    15068140.374 8 -39236259.652 8
 86  6 13  4 42 23.0800000  0  3G12G13G 7
  21978615.725    21978619.593    32468680.606 9 -29043332.268 9
  22295582.284    22295584.844     4885180.357 9  -2726195.730 9
  24266185.166    24266188.192    15067250.710 9 -39236952.910 8
 86  6 13  4 42 29.0800000  0  3G12G13G 7
  21981686.023    21981689.626    32484811.851 9 -29030762.474 8
  22297418.323    22297421.015     4894827.630 9  -2718678.370 8
                  24266024.177                   -39237623.555 8
 86  6 13  4 42 35.0800000  0  3G12G13G 7
  21984758.460    21984762.006    32500959.953 9 -29018179.534 8
  22299254.434    22299257.426     4904476.533 9  -2711159.746 9
  24265863.825    24265866.830    15029943.501 9 -39238266.428 8
 86  6 13  4 42 41.0800000  0  3G12G13G 7
  21987833.923    21987838.689    32517124.856 9 -29005583.523 8
  22301090.883    22301093.431     4914126.955 9  -2703639.933 8
  24265714.615    24265717.786    15029156.302 9 -39238879.844 8
 86  6 13  4 42 47.0800000  0  3G12G13G 7
  21990913.298    21990917.248    32533306.505 8 -28992974.447 8
  22302927.210    22302930.131     4923778.826 9  -2696118.998 8
  24265571.392    24265573.902    15028403.498 9 -39239466.050 9
 86  6 13  4 42 53.0800000  0  3G12G13G 7
  21993997.035    21993999.469    32549504.992 8 -28980352.254 7
  22304765.178    22304767.644     4933432.262 9  -2688596.836 9
  24265435.025    24265436.686    15027681.495 9 -39240028.655 9
 86  6 13  4 42 59.0800000  0  3G12G13G 7
  21997081.717    21997086.409    32565720.259 9 -28967716.978 9
  22306601.804    22306604.760     4943087.237 9  -2681073.480 9
  24265301.859    24265303.655    15026985.601 9 -39240570.898 8
 86  6 13  4 43  5.0800000  0  3G12G13G 7
  22000171.243    22000174.392    32581952.293 9 -28955068.652 9
  22308439.848    22308441.945     4952743.742 9  -2673548.935 9
  24265173.483    24265176.608    15026313.107 9 -39241094.914 9
 86  6 13  4 43 11.0800000  0  3G12G13G 7
  22003263.713    22003266.958    32598201.120 9 -28942407.230 9
  22310277.778    22310279.898     4962401.781 9  -2666023.195 8
  24265049.600    24265052.290    15025661.958 8 -39241602.305 8
 86  6 13  4 43 17.0800000  0  3G12G13G 7
  22006358.591    22006361.926    32614466.613 9 -28929732.830 9
  22312115.581    22312118.471     4972061.348 9  -2658496.253 9
  24264929.797    24264933.234    15025031.435 9 -39242093.621 8
 86  6 13  4 43 23.0800000  0  3G12G13G 7
  22009457.087    22009460.269    32630748.822 9 -28917045.402 9
  22313954.019    22313956.729     4981722.504 9  -2650968.080 9
  24264813.744    24264817.225    15024423.857 9 -39242567.062 8
 86  6 13  4 43 29.0800000  0  3G12G13G 7
  22012558.555    22012561.807    32647047.729 9 -28904344.955 8
  22315792.748    22315795.616     4991385.223 9  -2643438.685 9
                  24264706.492                   -39243017.595 8
 86  6 13  4 43 35.0800000  0  3G12G13G 7
  22015662.759    22015667.901    32663363.270 9 -28891631.558 8
  22317632.258    22317634.607     5001049.439 9  -2635908.128 9
  24264601.693    24264602.840    14987396.884 8 -39243440.149 8
 86  6 13  4 43 41.0800000  0  3G12G13G 7
  22018770.601    22018775.107    32679695.429 9 -28878905.214 9
  22319470.661    22319473.775     5010715.192 9  -2628376.376 9
  24264503.994    24264508.099    14986892.299 9 -39243833.331 8
 86  6 13  4 43 47.0800000  0  3G12G13G 7
  22021882.535    22021885.196    32696044.048 9 -28866166.028 8
  22321310.945    22321313.522     5020382.514 9  -2620843.395 8
  24264415.037    24264418.492    14986422.803 9 -39244199.550 8
 86  6 13  4 43 53.0800000  0  3G12G13G 7
  22024995.913    22025001.018    32712409.180 9 -28853413.987 9
  22323150.986    22323154.290     5030051.314 9  -2613309.260 9
  24264331.603    24264334.099    14985982.952 9 -39244542.292 9
 86  6 13  4 43 59.0800000  0  3G12G13G 7
  22028113.992    22028117.080    32728790.785 9 -28840649.095 8
  22324990.798    22324993.354     5039721.597 9  -2605773.973 8
  24264252.881    24264256.149    14985569.047 9 -39244864.816 9
 86  6 13  4 44  5.0800000  0  3G12G13G 7
  22031232.942    22031238.346    32745188.843 9 -28827871.397 9
  22326831.539    22326834.000     5049393.448 9  -2598237.470 9
  24264178.136    24264181.223    14985178.432 9 -39245169.189 9
 86  6 13  4 44 11.0800000  0  3G12G13G 7
  22034357.980    22034361.624    32761603.475 9 -28815080.772 8
  22328671.595    22328674.336     5059066.875 9  -2590699.723 9
  24264109.017    24264111.455    14984809.014 8 -39245457.043 8
 86  6 13  4 44 17.0800000  0  3G12G13G 7
  22037484.588    22037488.716    32778034.584 9 -28802277.326 8
  22330513.279    22330517.028     5068741.854 9  -2583160.780 8
  24264042.032    24264045.241    14984460.242 9 -39245728.804 9
 86  6 13  4 44 23.0800000  0  3G12G13G 7
  22040613.910    22040618.512    32794482.177 9 -28789461.015 7
  22332354.566    22332356.877     5078418.413 9  -2575620.594 8
  24263979.959    24263983.289    14984134.836 9 -39245982.374 9
 86  6 13  4 44 29.0800000  0  3G12G13G 7
  22043748.502    22043751.459    32810946.242 9 -28776631.877 8
  22334195.428    22334199.084     5088096.590 9  -2568079.145 9
                  24263927.740                   -39246212.597 8
 86  6 13  4 44 35.0800000  0  3G12G13G 7
  22046883.078    22046886.928    32827426.779 9 -28763789.910 9
  22336038.267    22336040.719     5097776.491 8  -2560536.375 9
  24263874.813    24263878.249    14947391.141 9 -39246415.089 8
 86  6 13  4 44 41.0800000  0  3G12G13G 7
  22050022.482    22050026.957    32843923.749 9 -28750935.144 8
  22337880.461    22337883.358     5107458.014 9  -2552992.324 8
  24263832.601    24263835.795    14947169.680 9 -39246587.674 8
 86  6 13  4 44 47.0800000  0  3G12G13G 7
  22053165.353    22053168.990    32860437.056 9 -28738067.626 8
  22339723.142    22339727.048     5117141.093 9  -2545447.077 8
  24263796.851    24263800.964    14946982.715 9 -39246732.853 8
 86  6 13  4 44 53.0800000  0  3G12G13G 7
  22056310.865    22056314.830    32876966.701 9 -28725187.395 8
  22341566.522    22341569.146     5126825.696 9  -2537900.617 9
  24263767.272    24263771.104    14946825.659 8 -39246855.228 9
 86  6 13  4 44 59.0800000  0  3G12G13G 7
  22059458.159    22059462.803    32893512.559 8 -28712294.531 8
  22343409.419    22343411.951     5136511.819 9  -2530352.990 9
  24263742.076    24263746.375    14946694.477 9 -39246957.454 8
 86  6 13  4 45  5.0800000  0  3G12G13G 7
  22062609.812    22062614.985    32910074.696 9 -28699388.964 8
  22345252.449    22345255.782     5146199.470 9  -2522804.169 8
  24263721.408    24263725.416    14946586.417 9 -39247041.655 9
 86  6 13  4 45 11.0800000  0  3G12G13G 7
  22065764.666    22065769.017    32926653.070 9 -28686470.770 8
  22347096.739    22347100.187     5155888.590 9  -2515254.205 9
  24263705.663    24263709.415    14946499.277 9 -39247109.566 9
 86  6 13  4 45 17.0800000  0  3G12G13G 7
  22068923.081    22068927.095    32943247.584 9 -28673539.978 8
  22348941.136    22348942.066     5165579.241 9  -2507703.047 9
  24263692.825    24263696.794    14946432.665 9 -39247161.460 8
 86  6 13  4 45 23.0800000  0  3G12G13G 7
  22072084.117    22072088.529    32959858.185 9 -28660596.666 8
  22350784.885    22350786.844     5175271.400 9  -2500150.718 9
  24263684.440    24263687.971    14946389.457 9 -39247195.132 9
 86  6 13  4 45 29.0800000  0  3G12G13G 7
  22075247.675    22075252.434    32976484.888 9 -28647640.806 8
  22352629.454    22352632.652     5184964.976 9  -2492597.282 8
                  24263685.636                   -39247205.413 8
 86  6 13  4 45 35.0800000  0  3G12G13G 7
  22078415.210    22078419.494    32993127.719 8 -28634672.373 9
  22354474.787    22354476.898     5194660.078 8  -2485042.649 8
  24263685.926    24263689.677    14909923.202 9 -39247187.518 8
 86  6 13  4 45 41.0800000  0  3G12G13G 7
  22081584.516    22081589.949    33009786.654 9 -28621691.389 8
  22356319.865    22356322.717     5204356.763 9  -2477486.787 8
  24263697.866    24263700.837    14909983.834 9 -39247140.278 8
 86  6 13  4 45 47.0800000  0  3G12G13G 7
  22084758.038    22084762.897    33026461.606 9 -28608697.929 8
  22358165.830    22358167.796     5214054.948 9  -2469929.759 8
  24263716.639    24263719.430    14910078.769 9 -39247066.305 9
 86  6 13  4 45 53.0800000  0  3G12G13G 7
  22087934.302    22087938.978    33043152.594 8 -28595691.967 8
  22360011.373    22360015.126     5223754.599 9  -2462371.583 8
  24263740.016    24263742.779    14910203.386 9 -39246969.194 9
 86  6 13  4 45 59.0800000  0  3G12G13G 7
  22091112.910    22091117.040    33059859.627 8 -28582673.508 8
  22361857.628    22361859.976     5233455.802 9  -2454812.205 8
  24263768.216    24263771.767    14910353.638 9 -39246852.119 8
 86  6 13  4 46  5.0800000  0  3G12G13G 7
  22094295.286    22094300.123    33076582.573 9 -28569642.653 9
  22363703.972    22363705.763     5243158.529 9  -2447251.632 9
  24263801.483    24263804.820    14910526.911 9 -39246717.097 9
 86  6 13  4 46 11.0800000  0  3G12G13G 7
  22097480.700    22097484.573    33093321.446 9 -28556599.391 9
  22365550.366    22365552.362     5252862.759 9  -2439689.890 9
  24263837.376    24263842.428    14910721.232 9 -39246565.673 8
 86  6 13  4 46 17.0800000  0  3G12G13G 7
  22100669.901    22100674.018    33110076.179 8 -28543543.754 8
  22367396.888    22367399.715     5262568.467 9  -2432126.994 9
  24263878.352    24263882.719    14910936.120 9 -39246398.233 9
 86  6 13  4 46 23.0800000  0  3G12G13G 7
  22103861.987    22103864.862    33126846.823 8 -28530475.730 8
  22369243.104    22369246.912     5272275.703 9  -2424562.914 9
  24263923.208    24263927.310    14911174.609 9 -39246212.395 8
 86  6 13  4 46 29.0800000  0  3G12G13G 7
  22107055.504    22107059.865    33143633.231 9 -28517395.414 9
  22371091.544    22371094.619     5281984.463 8  -2416997.643 9
                  24263979.103                   -39246002.933 8
 86  6 13  4 46 35.0800000  0  3G12G13G 7
  22110252.767    22110256.921    33160435.504 9 -28504302.735 9
  22372939.699    22372942.617     5291694.717 9  -2409431.205 8
  24264032.727    24264036.413    14874984.191 9 -39245765.036 8
 86  6 13  4 46 41.0800000  0  3G12G13G 7
  22113453.226    22113456.518    33177253.634 9 -28491197.714 8
  22374788.031    22374788.648     5301406.516 8  -2401863.569 8
  24264098.259    24264101.104    14875326.942 9 -39245497.963 9
 86  6 13  4 46 47.0800000  0  3G12G13G 7
  22116656.449    22116660.528    33194087.545 9 -28478080.377 8
  22376636.219    22376639.059     5311119.901 8  -2394294.696 9
  24264169.869    24264172.224    14875704.340 9 -39245204.281 8
 86  6 13  4 46 53.0800000  0  3G12G13G 7
  22119863.278    22119867.234    33210937.261 9 -28464950.736 8
  22378484.394    22378488.579     5320834.757 9  -2386724.667 8
  24264247.253    24264249.849    14876110.738 9 -39244887.600 8
 86  6 13  4 46 59.0800000  0  3G12G13G 7
  22123072.376    22123076.416    33227802.694 9 -28451808.861 9
  22380333.156    22380336.343     5330551.095 9  -2379153.493 9
  24264329.920    24264332.910    14876542.630 9 -39244551.060 9
 86  6 13  4 47  5.0800000  0  3G12G13G 7
  22126285.317    22126289.717    33244683.851 8 -28438654.715 8
  22382183.013    22382185.733     5340269.029 9  -2371581.070 8
  24264415.912    24264417.963    14876997.331 9 -39244196.742 8
 86  6 13  4 47 11.0800000  0  3G12G13G 7
  22129500.494    22129504.767    33261580.700 9 -28425488.346 8
  22384032.083    22384035.715     5349988.559 9  -2364007.416 8
  24264505.884    24264510.311    14877473.116 9 -39243825.996 8
 86  6 13  4 47 17.0800000  0  3G12G13G 7
  22132718.795    22132723.618    33278493.149 8 -28412309.813 9
  22385882.110    22385884.701     5359709.503 9  -2356432.649 8
  24264600.456    24264603.086    14877969.601 9 -39243439.120 9
 86  6 13  4 47 23.0800000  0  3G12G13G 7
  22135939.921    22135944.445    33295421.241 8 -28399119.109 8
  22387731.571    22387735.653     5369431.954 9  -2348856.712 9
                  24264702.318                   -39243033.731 8
 86  6 13  4 47 29.0800000  0  3G12G13G 7
  22139164.853    22139168.973    33312364.954 9 -28385916.212 9
  22389582.518    22389586.245     5379155.871 9  -2341279.629 8
  24264858.771    24264807.487    14842003.232 9 -39242604.658 8
 86  6 13  4 47 35.0800000  0  3G12G13G 7
  22142392.095    22142395.497    33329324.223 9 -28372701.203 9
  22391433.535    22391436.475     5388881.282 9  -2333701.388 8
  24264916.518    24264918.736    14842590.409 9 -39242146.937 8
 86  6 13  4 47 41.0800000  0  3G12G13G 7
  22145620.441    22145625.043    33346299.090 9 -28359474.044 9
  22393284.616    22393287.690     5398608.221 9  -2326121.952 8
  24265035.085    24265038.892    14843215.359 9 -39241659.959 9
 86  6 13  4 47 47.0800000  0  3G12G13G 7
  22148854.376    22148858.997    33363289.494 9 -28346234.780 8
  22395135.609    22395138.618     5408336.726 9  -2318541.293 9
  24265160.977    24265163.659    14843873.712 8 -39241146.564 8
 86  6 13  4 47 53.0800000  0  3G12G13G 7
  22152090.600    22152094.926    33380295.317 9 -28332983.499 9
  22396987.404    22396990.039     5418066.696 9  -2310959.498 9
  24265291.546    24265295.268    14844561.566 9 -39240610.570 7
 86  6 13  4 47 59.0800000  0  3G12G13G 7
  22155329.142    22155334.386    33397316.621 8 -28319720.142 8
  22398839.284    22398842.018     5427798.159 9  -2303376.540 9
  24265427.380    24265431.384    14845274.770 9 -39240054.830 8
 86  6 13  4 48  5.0800000  0  3G12G13G 7
  22158571.188    22158577.458    33414353.429 9 -28306444.724 8
  22400691.475    22400694.580     5437531.195 9  -2295792.350 9
  24265567.589    24265570.957    14846010.837 9 -39239481.268 9
 86  6 13  4 48 11.0800000  0  3G12G13G 7
  22161816.100    22161820.733    33431405.660 9 -28293157.282 9
  22402544.242    22402546.653     5447265.709 9  -2288207.020 9
  24265712.134    24265715.649    14846767.714 9 -39238891.493 9
 86  6 13  4 48 17.0800000  0  3G12G13G 7
  22165063.796    22165069.263    33448473.241 8 -28279857.869 8
  22404397.326    22404399.714     5457001.699 9  -2280620.523 9
  24265859.536    24265862.484    14847545.336 9 -39238285.552 9
